When you browse on this site, cookies collect data to enhance your experience and personalize the content and advertising you see.
Visit our Privacy Policy to learn more. By continuing to use the site, you agree to this use of cookies and data.
  • In Hungary
  • List of Countries
  • For 7 days
  • Water Temperature
  • Satellite Maps
  • Weather Map
  • News
  • Weather Widgets
  • user-avatar
    Login

    Hourly Weather Chengam

    Today, 21 November, Wednesday

    Time Temperature Precipitation Wind Pressure Humidity
    00:00 +24°C° 0 mm 2 mps 736 mmHg 92%
    01:00 +24°C° 0 mm 2 mps 735 mmHg 92%
    02:00 +24°C° 0 mm 2 mps 735 mmHg 92%
    03:00 +24°C° 0 mm 2 mps 735 mmHg 92%
    04:00 +24°C° 0 mm 2 mps 735 mmHg 91%
    05:00 +23°C° 0 mm 2 mps 735 mmHg 90%
    06:00 +25°C° 0.1 mm 2 mps 735 mmHg 84%
    07:00 +26°C° 0.1 mm 3 mps 735 mmHg 78%
    08:00 +27°C° 0.1 mm 4 mps 735 mmHg 71%
    09:00 +27°C° 0 mm 4 mps 735 mmHg 72%
    10:00 +27°C° 0 mm 4 mps 735 mmHg 73%
    11:00 +27°C° 0 mm 4 mps 736 mmHg 76%
    12:00 +27°C° 0.2 mm 4 mps 735 mmHg 76%
    13:00 +28°C° 0.2 mm 5 mps 734 mmHg 76%
    14:00 +28°C° 0.2 mm 5 mps 734 mmHg 76%
    15:00 +27°C° 0.6 mm 5 mps 734 mmHg 79%
    16:00 +27°C° 0.6 mm 4 mps 734 mmHg 83%
    17:00 +26°C° 0 mm 4 mps 734 mmHg 86%
    18:00 +26°C° 0.3 mm 4 mps 734 mmHg 87%
    19:00 +26°C° 0.3 mm 4 mps 735 mmHg 89%
    20:00 +25°C° 0.3 mm 4 mps 735 mmHg 91%
    21:00 +25°C° 0.4 mm 3 mps 735 mmHg 91%
    22:00 +25°C° 0.4 mm 3 mps 735 mmHg 92%
    23:00 +25°C° 0.4 mm 3 mps 735 mmHg 93%

    Tomorrow, 22 November, Thursday

    Time Temperature Precipitation Wind Pressure Humidity
    00:00 +25°C° 0.5 mm 3 mps 735 mmHg 93%
    01:00 +25°C° 0.5 mm 3 mps 735 mmHg 93%
    02:00 +25°C° 0.5 mm 3 mps 734 mmHg 93%
    03:00 +25°C° 0.8 mm 3 mps 735 mmHg 93%
    04:00 +25°C° 0.8 mm 3 mps 735 mmHg 93%
    05:00 +25°C° 0.8 mm 3 mps 735 mmHg 93%
    06:00 +25°C° 1.1 mm 3 mps 735 mmHg 92%
    07:00 +26°C° 1.1 mm 4 mps 736 mmHg 91%
    08:00 +26°C° 1.1 mm 4 mps 736 mmHg 89%
    09:00 +26°C° 0.9 mm 4 mps 736 mmHg 88%
    10:00 +26°C° 0.9 mm 4 mps 736 mmHg 87%
    11:00 +27°C° 0.9 mm 4 mps 736 mmHg 87%
    12:00 +27°C° 1 mm 4 mps 736 mmHg 86%
    13:00 +27°C° 1 mm 4 mps 735 mmHg 85%
    14:00 +27°C° 1 mm 4 mps 735 mmHg 85%
    15:00 +27°C° 0.3 mm 4 mps 735 mmHg 87%
    16:00 +26°C° 0.3 mm 4 mps 735 mmHg 89%
    17:00 +26°C° 0.3 mm 3 mps 735 mmHg 91%
    18:00 +25°C° 0.1 mm 3 mps 736 mmHg 92%
    19:00 +25°C° 0.1 mm 3 mps 736 mmHg 93%
    20:00 +25°C° 0.1 mm 2 mps 737 mmHg 94%
    21:00 +25°C° 0.1 mm 2 mps 737 mmHg 94%
    22:00 +25°C° 0.1 mm 2 mps 737 mmHg 94%
    23:00 +25°C° 0.1 mm 2 mps 737 mmHg 95%

    Day after tomorrow, 23 November, Friday

    Time Temperature Precipitation Wind Pressure Humidity
    00:00 +24°C° 0.1 mm 2 mps 737 mmHg 95%
    01:00 +24°C° 0.1 mm 2 mps 737 mmHg 95%
    02:00 +24°C° 0.1 mm 2 mps 736 mmHg 96%
    03:00 +24°C° 0.2 mm 2 mps 737 mmHg 96%
    04:00 +24°C° 0.2 mm 2 mps 737 mmHg 96%
    05:00 +24°C° 0.2 mm 2 mps 737 mmHg 96%
    06:00 +25°C° 0.2 mm 2 mps 737 mmHg 93%
    07:00 +26°C° 0.2 mm 2 mps 738 mmHg 90%
    08:00 +26°C° 0.2 mm 3 mps 739 mmHg 87%
    09:00 +27°C° 0.7 mm 3 mps 738 mmHg 83%
    10:00 +28°C° 0.7 mm 4 mps 738 mmHg 80%
    11:00 +29°C° 0.7 mm 4 mps 738 mmHg 77%
    12:00 +29°C° 1 mm 4 mps 737 mmHg 76%
    13:00 +29°C° 1 mm 4 mps 737 mmHg 76%
    14:00 +29°C° 1 mm 4 mps 736 mmHg 75%
    15:00 +28°C° 0.4 mm 4 mps 736 mmHg 79%
    16:00 +28°C° 0.4 mm 3 mps 736 mmHg 82%
    17:00 +27°C° 0.4 mm 2 mps 736 mmHg 85%
    18:00 +26°C° 0 mm 2 mps 737 mmHg 88%
    19:00 +25°C° 0 mm 2 mps 737 mmHg 90%
    20:00 +25°C° 0 mm 2 mps 738 mmHg 93%
    21:00 +25°C° 0 mm 2 mps 738 mmHg 93%
    22:00 +24°C° 0 mm 2 mps 738 mmHg 94%
    23:00 +24°C° 0 mm 2 mps 738 mmHg 95%

    24 November, Saturday

    Time Temperature Precipitation Wind Pressure Humidity
    00:00 +24°C° 0 mm 1 mps 738 mmHg 95%
    01:00 +24°C° 0 mm 1 mps 737 mmHg 95%
    02:00 +23°C° 0 mm 1 mps 737 mmHg 95%
    03:00 +23°C° 0 mm 1 mps 737 mmHg 95%
    04:00 +23°C° 0 mm 1 mps 737 mmHg 95%
    05:00 +23°C° 0 mm 1 mps 737 mmHg 95%
    06:00 +24°C° 0 mm 1 mps 738 mmHg 90%
    07:00 +25°C° 0 mm 1 mps 739 mmHg 85%
    08:00 +26°C° 0 mm 1 mps 739 mmHg 80%
    09:00 +28°C° 0 mm 2 mps 739 mmHg 71%
    10:00 +29°C° 0 mm 2 mps 739 mmHg 63%
    11:00 +31°C° 0 mm 3 mps 739 mmHg 54%
    12:00 +31°C° 0 mm 3 mps 738 mmHg 53%
    13:00 +31°C° 0 mm 3 mps 737 mmHg 52%
    14:00 +33°C° 0 mm 3 mps 736 mmHg 51%
    15:00 +31°C° 0 mm 3 mps 736 mmHg 58%
    16:00 +29°C° 0 mm 3 mps 736 mmHg 65%
    17:00 +28°C° 0 mm 2 mps 736 mmHg 71%
    18:00 +27°C° 0 mm 2 mps 737 mmHg 75%
    19:00 +26°C° 0 mm 2 mps 738 mmHg 80%
    20:00 +25°C° 0 mm 2 mps 738 mmHg 84%
    21:00 +25°C° 0 mm 1 mps 738 mmHg 86%
    22:00 +24°C° 0 mm 1 mps 738 mmHg 88%
    23:00 +24°C° 0 mm 1 mps 738 mmHg 91%

    25 November, Sunday

    Time Temperature Precipitation Wind Pressure Humidity
    00:00 +24°C° 0 mm 1 mps 738 mmHg 92%
    01:00 +24°C° 0 mm 1 mps 737 mmHg 92%
    02:00 +23°C° 0 mm 1 mps 737 mmHg 93%
    03:00 +23°C° 0 mm 1 mps 737 mmHg 93%
    04:00 +23°C° 0 mm 1 mps 737 mmHg 93%
    05:00 +23°C° 0 mm 1 mps 736 mmHg 93%
    06:00 +24°C° 0 mm 1 mps 737 mmHg 87%
    07:00 +26°C° 0 mm 1 mps 738 mmHg 81%
    08:00 +27°C° 0 mm 1 mps 738 mmHg 75%
    09:00 +28°C° 0 mm 1 mps 738 mmHg 69%
    10:00 +30°C° 0 mm 2 mps 738 mmHg 62%
    11:00 +31°C° 0 mm 3 mps 738 mmHg 56%
    12:00 +31°C° 0 mm 3 mps 737 mmHg 57%
    13:00 +31°C° 0 mm 3 mps 736 mmHg 58%
    14:00 +31°C° 0 mm 3 mps 735 mmHg 58%
    15:00 +30°C° 0 mm 2 mps 735 mmHg 63%
    16:00 +29°C° 0 mm 2 mps 735 mmHg 67%
    17:00 +28°C° 0 mm 2 mps 735 mmHg 71%
    18:00 +27°C° 0 mm 2 mps 736 mmHg 76%
    19:00 +26°C° 0 mm 2 mps 736 mmHg 81%
    20:00 +25°C° 0 mm 1 mps 737 mmHg 85%
    21:00 +25°C° 0 mm 1 mps 737 mmHg 87%
    22:00 +25°C° 0 mm 1 mps 737 mmHg 90%
    23:00 +24°C° 0 mm 1 mps 737 mmHg 92%

    26 November, Monday

    Time Temperature Precipitation Wind Pressure Humidity
    00:00 +24°C° 0 mm 1 mps 736 mmHg 92%
    01:00 +24°C° 0 mm 1 mps 736 mmHg 92%
    02:00 +24°C° 0 mm 1 mps 735 mmHg 92%
    03:00 +24°C° 0 mm 1 mps 735 mmHg 92%
    04:00 +23°C° 0 mm 1 mps 735 mmHg 92%
    05:00 +23°C° 0 mm 1 mps 736 mmHg 93%
    06:00 +24°C° 0 mm 1 mps 736 mmHg 88%
    07:00 +25°C° 0 mm 1 mps 737 mmHg 83%
    08:00 +26°C° 0 mm 1 mps 738 mmHg 79%
    09:00 +28°C° 0 mm 2 mps 737 mmHg 71%
    10:00 +29°C° 0 mm 2 mps 737 mmHg 63%
    11:00 +30°C° 0 mm 3 mps 737 mmHg 56%
    12:00 +30°C° 0 mm 3 mps 736 mmHg 53%
    13:00 +31°C° 0 mm 3 mps 735 mmHg 51%
    14:00 +31°C° 0 mm 3 mps 734 mmHg 49%
    15:00 +30°C° 0 mm 3 mps 734 mmHg 55%
    16:00 +29°C° 0 mm 3 mps 734 mmHg 61%
    17:00 +27°C° 0 mm 3 mps 735 mmHg 68%
    18:00 +26°C° 0 mm 2 mps 735 mmHg 73%
    19:00 +25°C° 0 mm 2 mps 736 mmHg 78%
    20:00 +24°C° 0 mm 2 mps 736 mmHg 83%
    21:00 +23°C° 0 mm 2 mps 736 mmHg 85%
    22:00 +23°C° 0 mm 1 mps 736 mmHg 86%
    23:00 +22°C° 0 mm 1 mps 736 mmHg 88%
    Show more